When you browse on this site, cookies collect data to enhance your experience and personalize the content and advertising you see.
Visit our Privacy Policy to learn more. By continuing to use the site, you agree to this use of cookies and data.
  • Em Portugal
  • Lista de países
  • Para 7 dias
  • Temperatura da água
  • Mapas de satélite
  • Mapa do tempo
  • Widgets de tempo
  • user-avatar
    Iniciar Sessão

    Previsão horária em Galechnik

    Hoje, 16 Fevereiro, Sábado

    Tempo Temperatura Precipitação Vento Pressão Humidade
    00:00 -11°C° 0.2 mm 4 m/s 726 mmHg 93%
    01:00 -11°C° 0.2 mm 4 m/s 725 mmHg 93%
    02:00 -11°C° 0.1 mm 4 m/s 725 mmHg 94%
    03:00 -10°C° 0.1 mm 3 m/s 724 mmHg 94%
    04:00 -10°C° 0.1 mm 3 m/s 724 mmHg 95%
    05:00 -9°C° 0.1 mm 2 m/s 723 mmHg 95%
    06:00 -10°C° 0.1 mm 2 m/s 723 mmHg 96%
    07:00 -10°C° 0.1 mm 2 m/s 723 mmHg 97%
    08:00 -8°C° 0.1 mm 1 m/s 723 mmHg 96%
    09:00 -8°C° 0.1 mm 1 m/s 723 mmHg 96%
    10:00 -7°C° 0.1 mm 1 m/s 723 mmHg 95%
    11:00 -7°C° 0.1 mm 1 m/s 723 mmHg 94%
    12:00 -6°C° 0.1 mm 1 m/s 724 mmHg 92%
    13:00 -4°C° 0.1 mm 1 m/s 724 mmHg 90%
    14:00 -4°C° 0 mm 1 m/s 724 mmHg 89%
    15:00 -4°C° 0 mm 1 m/s 724 mmHg 88%
    16:00 -4°C° 0 mm 1 m/s 724 mmHg 88%
    17:00 -4°C° 0 mm 1 m/s 725 mmHg 89%
    18:00 -6°C° 0 mm 1 m/s 725 mmHg 90%
    19:00 -6°C° 0 mm 1 m/s 725 mmHg 92%
    20:00 -7°C° 0 mm 1 m/s 725 mmHg 92%
    21:00 -8°C° 0 mm 1 m/s 725 mmHg 92%
    22:00 -8°C° 0 mm 1 m/s 725 mmHg 92%
    23:00 -9°C° 0 mm 0 m/s 726 mmHg 92%

    Amanhã, 17 Fevereiro, Domingo

    Tempo Temperatura Precipitação Vento Pressão Humidade
    00:00 -9°C° 0 mm 0 m/s 726 mmHg 92%
    01:00 -9°C° 0 mm 0 m/s 726 mmHg 92%
    02:00 -9°C° 0 mm 0 m/s 726 mmHg 93%
    03:00 -9°C° 0 mm 1 m/s 725 mmHg 93%
    04:00 -10°C° 0 mm 1 m/s 725 mmHg 94%
    05:00 -9°C° 0 mm 1 m/s 725 mmHg 94%
    06:00 -10°C° 0 mm 2 m/s 725 mmHg 95%
    07:00 -9°C° 0 mm 2 m/s 724 mmHg 95%
    08:00 -9°C° 0 mm 2 m/s 724 mmHg 95%
    09:00 -9°C° 0 mm 3 m/s 723 mmHg 95%
    10:00 -8°C° 0 mm 3 m/s 723 mmHg 95%
    11:00 -7°C° 0 mm 3 m/s 722 mmHg 94%
    12:00 -7°C° 0 mm 4 m/s 722 mmHg 92%
    13:00 -5°C° 0 mm 4 m/s 721 mmHg 90%
    14:00 -6°C° 0.1 mm 5 m/s 720 mmHg 89%
    15:00 -6°C° 0.1 mm 5 m/s 720 mmHg 88%
    16:00 -6°C° 0.1 mm 5 m/s 719 mmHg 87%
    17:00 -6°C° 0.2 mm 5 m/s 718 mmHg 88%
    18:00 -7°C° 0.2 mm 5 m/s 718 mmHg 89%
    19:00 -7°C° 0.2 mm 5 m/s 717 mmHg 90%
    20:00 -8°C° 0.2 mm 5 m/s 716 mmHg 91%
    21:00 -8°C° 0.2 mm 5 m/s 716 mmHg 92%
    22:00 -8°C° 0.2 mm 5 m/s 715 mmHg 93%
    23:00 -8°C° 0.3 mm 4 m/s 715 mmHg 93%

    Depois de amanhã, 18 Fevereiro, Segunda-feira

    Tempo Temperatura Precipitação Vento Pressão Humidade
    00:00 -8°C° 0.3 mm 4 m/s 714 mmHg 93%
    01:00 -8°C° 0.3 mm 4 m/s 714 mmHg 94%
    02:00 -8°C° 0.1 mm 3 m/s 714 mmHg 95%
    03:00 -8°C° 0.1 mm 3 m/s 714 mmHg 95%
    04:00 -7°C° 0.1 mm 2 m/s 713 mmHg 96%
    05:00 -7°C° 0.1 mm 2 m/s 714 mmHg 96%
    06:00 -6°C° 0.1 mm 1 m/s 714 mmHg 97%
    07:00 -6°C° 0.1 mm 1 m/s 714 mmHg 97%
    08:00 -6°C° 0.1 mm 1 m/s 714 mmHg 96%
    09:00 -6°C° 0.1 mm 1 m/s 715 mmHg 95%
    10:00 -5°C° 0.1 mm 0 m/s 715 mmHg 95%
    11:00 -4°C° 0.2 mm 1 m/s 716 mmHg 93%
    12:00 -5°C° 0.2 mm 2 m/s 716 mmHg 92%
    13:00 -5°C° 0.2 mm 2 m/s 717 mmHg 91%
    14:00 -6°C° 0.2 mm 3 m/s 717 mmHg 90%
    15:00 -6°C° 0.2 mm 3 m/s 718 mmHg 90%
    16:00 -7°C° 0.2 mm 4 m/s 718 mmHg 89%
    17:00 -7°C° 0.1 mm 4 m/s 719 mmHg 89%
    18:00 -8°C° 0.1 mm 4 m/s 720 mmHg 89%
    19:00 -8°C° 0.1 mm 4 m/s 721 mmHg 88%
    20:00 -10°C° 0.1 mm 5 m/s 722 mmHg 87%
    21:00 -12°C° 0.1 mm 7 m/s 723 mmHg 86%
    22:00 -12°C° 0.1 mm 8 m/s 724 mmHg 85%
    23:00 -15°C° 0 mm 8 m/s 725 mmHg 84%

    19 Fevereiro, Terça-feira

    Tempo Temperatura Precipitação Vento Pressão Humidade
    00:00 -15°C° 0 mm 7 m/s 726 mmHg 84%
    01:00 -17°C° 0 mm 7 m/s 727 mmHg 83%
    02:00 -18°C° 0 mm 7 m/s 728 mmHg 81%
    03:00 -18°C° 0 mm 6 m/s 729 mmHg 79%
    04:00 -21°C° 0 mm 6 m/s 729 mmHg 77%
    05:00 -20°C° 0 mm 5 m/s 730 mmHg 80%
    06:00 -20°C° 0 mm 4 m/s 731 mmHg 84%
    07:00 -20°C° 0 mm 4 m/s 731 mmHg 87%
    08:00 -19°C° 0 mm 3 m/s 732 mmHg 89%
    09:00 -18°C° 0 mm 3 m/s 732 mmHg 90%
    10:00 -17°C° 0 mm 2 m/s 732 mmHg 92%
    11:00 -15°C° 0 mm 2 m/s 732 mmHg 91%
    12:00 -14°C° 0 mm 2 m/s 732 mmHg 89%
    13:00 -12°C° 0 mm 2 m/s 732 mmHg 88%
    14:00 -12°C° 0 mm 2 m/s 732 mmHg 89%
    15:00 -13°C° 0 mm 3 m/s 731 mmHg 90%
    16:00 -13°C° 0 mm 3 m/s 731 mmHg 91%
    17:00 -12°C° 0.2 mm 4 m/s 731 mmHg 92%
    18:00 -12°C° 0.2 mm 4 m/s 730 mmHg 92%
    19:00 -12°C° 0.2 mm 4 m/s 730 mmHg 93%
    20:00 -12°C° 0.1 mm 4 m/s 730 mmHg 93%
    21:00 -12°C° 0.1 mm 3 m/s 730 mmHg 94%
    22:00 -13°C° 0.1 mm 3 m/s 730 mmHg 94%
    23:00 -12°C° 0.1 mm 3 m/s 729 mmHg 94%

    20 Fevereiro, Quarta-feira

    Tempo Temperatura Precipitação Vento Pressão Humidade
    00:00 -12°C° 0.1 mm 3 m/s 729 mmHg 94%
    01:00 -12°C° 0.1 mm 4 m/s 729 mmHg 95%
    02:00 -11°C° 0.1 mm 4 m/s 729 mmHg 94%
    03:00 -11°C° 0.1 mm 4 m/s 728 mmHg 94%
    04:00 -11°C° 0.1 mm 4 m/s 728 mmHg 94%
    05:00 -10°C° 0.3 mm 4 m/s 728 mmHg 94%
    06:00 -9°C° 0.3 mm 4 m/s 727 mmHg 94%
    07:00 -9°C° 0.3 mm 4 m/s 727 mmHg 94%
    08:00 -8°C° 0.4 mm 5 m/s 727 mmHg 94%
    09:00 -8°C° 0.4 mm 5 m/s 727 mmHg 94%
    10:00 -7°C° 0.4 mm 5 m/s 727 mmHg 94%
    11:00 -6°C° 0.5 mm 5 m/s 727 mmHg 94%
    12:00 -6°C° 0.5 mm 5 m/s 727 mmHg 93%
    13:00 -5°C° 0.5 mm 5 m/s 727 mmHg 93%
    14:00 -4°C° 0.3 mm 4 m/s 727 mmHg 93%
    15:00 -4°C° 0.3 mm 4 m/s 727 mmHg 93%
    16:00 -4°C° 0.3 mm 4 m/s 727 mmHg 92%
    17:00 -4°C° 0.2 mm 4 m/s 727 mmHg 93%
    18:00 -5°C° 0.2 mm 4 m/s 727 mmHg 93%
    19:00 -5°C° 0.2 mm 4 m/s 727 mmHg 93%
    20:00 -6°C° 0.1 mm 5 m/s 727 mmHg 93%
    21:00 -7°C° 0.1 mm 5 m/s 727 mmHg 93%
    22:00 -8°C° 0.1 mm 5 m/s 726 mmHg 92%
    23:00 -8°C° 0.1 mm 5 m/s 726 mmHg 92%

    21 Fevereiro, Quinta-feira

    Tempo Temperatura Precipitação Vento Pressão Humidade
    00:00 -10°C° 0.1 mm 5 m/s 726 mmHg 92%
    01:00 -11°C° 0.1 mm 5 m/s 725 mmHg 92%
    02:00 -10°C° 0.2 mm 6 m/s 725 mmHg 92%
    03:00 -10°C° 0.2 mm 6 m/s 725 mmHg 92%
    04:00 -10°C° 0.2 mm 6 m/s 724 mmHg 92%
    05:00 -11°C° 0.3 mm 6 m/s 724 mmHg 92%
    06:00 -11°C° 0.3 mm 6 m/s 723 mmHg 91%
    07:00 -11°C° 0.3 mm 6 m/s 723 mmHg 91%
    08:00 -10°C° 0.2 mm 6 m/s 723 mmHg 91%
    09:00 -11°C° 0.2 mm 7 m/s 723 mmHg 91%
    10:00 -9°C° 0.2 mm 7 m/s 723 mmHg 90%
    11:00 -8°C° 0.2 mm 7 m/s 722 mmHg 90%
    12:00 -7°C° 0.2 mm 7 m/s 722 mmHg 89%
    13:00 -6°C° 0.2 mm 8 m/s 722 mmHg 89%
    14:00 -6°C° 0.2 mm 7 m/s 722 mmHg 89%
    15:00 -6°C° 0.2 mm 7 m/s 722 mmHg 88%
    16:00 -4°C° 0.2 mm 7 m/s 722 mmHg 88%
    17:00 -6°C° 0.2 mm 7 m/s 722 mmHg 88%
    18:00 -6°C° 0.2 mm 7 m/s 722 mmHg 89%
    19:00 -6°C° 0.2 mm 7 m/s 722 mmHg 89%
    20:00 -6°C° 0.2 mm 7 m/s 722 mmHg 90%
    21:00 -5°C° 0.2 mm 6 m/s 722 mmHg 90%
    22:00 -5°C° 0.2 mm 6 m/s 722 mmHg 91%
    23:00 -5°C° 0.1 mm 6 m/s 722 mmHg 91%
    Mostrar mais